Hourly Data Report for October 01, 2015

All times are specified in Local Standard Time (LST). Add 1 hour to adjust for Daylight Saving Time where and when it is observed.

ARVIAT A
NUNAVUT

61°05'38.000" N
94°04'18.000" W
10.40 m
2300427
71174
YEK

Download Data

Hourly Data (October 2015)
Hourly Data Report for October 1, 2015
Temp Definition
°C
Dew Point Temp Definition
°C
Rel Hum Definition
%
Wind Dir Definition
10's deg

Wind Spd Definition
km/h
Visibility Definition
km
Stn Press Definition
kPa
Hmdx Definition


Wind Chill Definition


Weather Definition


TIME
00:00 Legend Double Dagger 4.9 2.9 87 19 39 16.1 101.99     LegendNANA
01:00 Legend Double Dagger 5.1 3.1 87 19 37 16.1 101.97     LegendNANA
02:00 Legend Double Dagger 5.2 3.2 87 19 37 16.1 101.95     LegendNANA
03:00 Legend Double Dagger 4.9 3.1 88 19 34 16.1 101.92     LegendNANA
04:00 Legend Double Dagger 4.9 3.3 89 19 34 16.1 101.85     LegendNANA
05:00 Legend Double Dagger 4.8 3.5 91 19 26 16.1 101.80     LegendNANA
06:00 Legend Double Dagger 4.7 2.9 88 20 28 16.1 101.78     LegendNANA
07:00 Legend Double Dagger 4.8 3.0 88 20 24 16.1 101.78     LegendNANA
08:00 Legend Double Dagger 5.4 3.1 85 20 30 16.1 101.73     LegendNANA
09:00 Legend Double Dagger 6.2 3.9 85 20 30 16.1 101.72     LegendNANA
10:00 Legend Double Dagger 7.0 4.5 84 20 24 16.1 101.72     LegendNANA
11:00 Legend Double Dagger 7.0 4.7 85 20 28 16.1 101.71     LegendNANA
12:00 Legend Double Dagger 8.1 5.7 85 19 34 16.1 101.68     LegendNANA
13:00 Legend Double Dagger 9.0 6.4 84 19 32 16.1 101.65     LegendNANA
14:00 Legend Double Dagger 12.4 8.9 79 21 26 16.1 101.67     LegendNANA
15:00 Legend Double Dagger 17.0 9.6 61 23 39 16.1 101.65     LegendNANA
16:00 Legend Double Dagger 17.7 10.7 63 22 24 16.1 101.69     LegendNANA
17:00 Legend Double Dagger 17.9 10.4 61 24 22 16.1 101.75     LegendNANA
18:00 Legend Double Dagger 15.8 10.4 70 24 15 16.1 101.85     LegendNANA
19:00 Legend Double Dagger 12.5 9.7 83 23 11 16.1 101.95     LegendNANA
20:00 Legend Double Dagger 10.6 8.7 88 25 13 16.1 102.04     LegendNANA
21:00 Legend Double Dagger 10.8 8.4 85 29 9 16.1 102.14     LegendNANA
22:00 Legend Double Dagger 8.7 7.5 92 34 15 16.1 102.18     LegendNANA
23:00 Legend Double Dagger 9.6 7.7 88 2 17 16.1 102.25     LegendNANA

Notes on Data Quality.

Legend

  • E = Estimated
  • M = Missing
  • NA = Not Available
  • ‡ = Partner data that is not subject to review by the National Climate Archives
Date modified: